Content
SEND FEEDBACK

United States of America Flag

MARKLEEVILLE, CALIFORNIA


Home > North America > United States > California
Elevation: 5585 feet     Latitude: 38 47N     Longitude: 119 49W

WEATHER
 
SELECT A DAY
Number of Records: 192,369;   Date Range: 1/1/95 - 3/22/16
 
SHARE

PRINT THIS DATA

[ ← Previous Day ]
WEATHER ALMANAC - AUGUST 17, 2014
[ Next Day → ]
[ °C ]   °F
Weather ElementAverageHighLow
Temperature62.6 °F82.9 °F (3:53 pm)39.9 °F (6:53 am)
Dewpoint32.4 °F44.1 °F (1:53 pm)21 °F (2:53 pm)
Humidity39.9 %79 % (6:53 am)10 % (2:53 pm)
Barometer30.08 in30.17 in (5:26 pm)30.00 in (12:53 pm)
Wind Speed3.3 mph9.2 mph (3:53 pm)
Wind Gust26.5 mph (10:53 am)
Weather ElementAverage
Visibility10 mi
Wind DirectionENE (70.9 °)

Weather ElementTotal
Precipitation---
Heating Degree Days3.6 (Base 65)
Growing Degree Days11.4 (Base 50)
Averaged from 23 records on August 17, 2014
WEATHER CONDITIONS BREAKOUT
WIND DIRECTION BREAKOUT
WEATHER BY HOUR - AUGUST 17, 2014
[ °C ]   °F
Local TimeTemperatureDewpointHumidityBarometerVisibilityWind DirectionWind SpeedGust SpeedPrecipitationEventsConditions
12:53 AM52.0 °F39.0 °F61 %30.11 in10.0 miSouth (180°)3.5 mphClear
1:53 AM50.0 °F37.0 °F61 %30.11 in10.0 miCalmClear
2:53 AM46.0 °F37.0 °F71 %30.12 in10.0 miCalmClear
3:53 AM46.0 °F36.0 °F68 %30.12 in10.0 miCalmClear
4:53 AM44.1 °F35.1 °F71 %30.12 in10.0 miCalmClear
5:53 AM43.0 °F35.1 °F74 %30.14 in10.0 miSouth (190°)4.6 mphClear
6:53 AM39.9 °F34.0 °F79 %30.17 in10.0 miSouth (190°)4.6 mphClear
7:53 AM48.0 °F35.1 °F61 %30.17 in10.0 miSouth (180°)4.6 mphClear
8:53 AM62.1 °F32.0 °F32 %30.12 in10.0 miCalmClear
9:53 AM70.0 °F41.0 °F35 %30.11 in10.0 miNE (50°)5.8 mphClear
10:53 AM75.0 °F44.1 °F33 %30.11 in10.0 miNNE (20°)5.8 mphClear
11:53 AM80.1 °F23.0 °F12 %30.09 in10.0 miNorthClear
12:53 PM81.0 °F23.0 °F12 %30.06 in10.0 miSouth (190°)9.2 mph26.5 mphClear
1:53 PM82.9 °F21.0 °F10 %30.06 in10.0 miSSW (210°)9.2 mph21.9 mphClear
3:53 PM82.0 °F27.0 °F13 %30.05 in10.0 miSSW (200°)9.2 mphClear
4:53 PM80.1 °F26.1 °F14 %30.05 in10.0 miVariable3.5 mphClear
5:53 PM78.1 °F28.0 °F16 %30.04 in10.0 miVariable5.8 mph18.4 mphClear
6:53 PM75.9 °F28.0 °F17 %30.06 in10.0 miSW (220°)6.9 mphClear
7:53 PM69.1 °F33.1 °F26 %30.06 in10.0 miCalmClear
8:53 PM63.0 °F34.0 °F34 %30.04 in10.0 miCalmClear
9:53 PM61.0 °F34.0 °F36 %30.02 in10.0 miCalmClear
10:53 PM55.9 °F33.1 °F42 %30.01 in10.0 miCalmClear
11:53 PM54.0 °F30.0 °F40 %30.00 in10.0 miCalmClear
Hourly data recorded from KTVL, located miles away from Markleeville, California




STORIES FROM OUR PARTNERS